| time (UTC) | temp C | wind direction | speed KPH | gust KPH | rain 1hr cm | rain 24hr cm | rain mn cm | humidity % | barometer mb |
| 20260510153024 | 22 | 33 | 1.6 | 6.4 | 0.00 | 0.99 | 0.00 | 90 | 1018.4 |
| 20260510151516 | 22 | 32 | 0.0 | 3.2 | 0.00 | 0.99 | 0.00 | 90 | 1018.4 |
| 20260510150034 | 22 | 32 | 0.0 | 0.0 | 0.00 | 0.99 | 0.00 | 91 | 1018.3 |
| 20260510144505 | 21 | 32 | 0.0 | 0.0 | 0.00 | 0.99 | 0.00 | 90 | 1018.1 |
| 20260510143015 | 21 | 32 | 0.0 | 0.0 | 0.00 | 0.99 | 0.00 | 91 | 1018.1 |
| 20260510140017 | 21 | 32 | 0.0 | 0.0 | 0.00 | 0.99 | 0.00 | 90 | 1018.0 |
| 20260510134516 | 21 | 32 | 0.0 | 0.0 | 0.00 | 0.99 | 0.00 | 90 | 1017.8 |
| 20260510133006 | 21 | 32 | 0.0 | 1.6 | 0.00 | 0.99 | 0.00 | 90 | 1017.9 |
| 20260510131521 | 21 | 32 | 0.0 | 1.6 | 0.00 | 0.99 | 0.00 | 90 | 1017.7 |
| 20260510130011 | 21 | 32 | 0.0 | 4.8 | 0.00 | 0.99 | 0.00 | 90 | 1017.7 |
| 20260510124519 | 21 | 36 | 0.0 | 4.8 | 0.00 | 0.99 | 0.00 | 90 | 1017.4 |
| 20260510123006 | 21 | 36 | 1.6 | 8.0 | 0.00 | 0.99 | 0.00 | 90 | 1017.2 |
| 20260510121514 | 21 | 37 | 0.0 | 4.8 | 0.00 | 0.99 | 0.00 | 90 | 1017.0 |
| 20260510120012 | 21 | 37 | 0.0 | 0.0 | 0.00 | 0.99 | 0.00 | 90 | 1016.7 |
| 20260510114521 | 20 | 37 | 0.0 | 0.0 | 0.00 | 0.99 | 0.00 | 90 | 1016.6 |
| 20260510113014 | 20 | 37 | 0.0 | 0.0 | 0.00 | 0.99 | 0.00 | 90 | 1016.5 |
| 20260510111512 | 20 | 37 | 0.0 | 0.0 | 0.00 | 0.99 | 0.00 | 90 | 1016.1 |
| 20260510104518 | 20 | 37 | 0.0 | 0.0 | 0.00 | 0.99 | 0.00 | 90 | 1016.0 |
| 20260510103027 | 20 | 37 | 0.0 | 0.0 | 0.00 | 0.99 | 0.00 | 90 | 1015.7 |
| 20260510101519 | 20 | 37 | 0.0 | 0.0 | 0.00 | 0.99 | 0.00 | 90 | 1015.5 |
| 20260510100031 | 20 | 37 | 0.0 | 0.0 | 0.00 | 0.99 | 0.00 | 90 | 1015.4 |
| 20260510094517 | 20 | 37 | 0.0 | 0.0 | 0.00 | 0.99 | 0.00 | 90 | 1015.2 |
| 20260510093017 | 20 | 37 | 0.0 | 0.0 | 0.00 | 1.02 | 0.00 | 90 | 1015.2 |
| 20260510091525 | 20 | 37 | 0.0 | 0.0 | 0.00 | 1.02 | 0.00 | 90 | 1015.0 |
| 20260510090025 | 20 | 37 | 0.0 | 0.0 | 0.00 | 1.02 | 0.00 | 90 | 1014.7 |
| 20260510084526 | 20 | 37 | 0.0 | 0.0 | 0.00 | 1.02 | 0.00 | 90 | 1014.6 |
| 20260510083021 | 20 | 37 | 0.0 | 0.0 | 0.00 | 1.02 | 0.00 | 90 | 1014.4 |
| 20260510080025 | 20 | 37 | 0.0 | 0.0 | 0.00 | 1.02 | 0.00 | 89 | 1014.7 |
| 20260510074525 | 20 | 37 | 0.0 | 0.0 | 0.00 | 1.02 | 0.00 | 89 | 1014.5 |
| 20260510073023 | 20 | 37 | 0.0 | 0.0 | 0.00 | 1.02 | 0.00 | 90 | 1014.4 |
| 20260510071522 | 20 | 37 | 0.0 | 0.0 | 0.00 | 1.02 | 0.00 | 90 | 1014.5 |
| 20260510070028 | 20 | 37 | 0.0 | 0.0 | 0.00 | 1.02 | 0.00 | 89 | 1014.4 |
| 20260510064521 | 20 | 37 | 0.0 | 0.0 | 0.00 | 1.02 | 0.00 | 89 | 1014.5 |
| 20260510063021 | 20 | 37 | 0.0 | 0.0 | 0.00 | 1.02 | 0.00 | 89 | 1014.5 |
| 20260510061517 | 20 | 37 | 0.0 | 0.0 | 0.00 | 1.02 | 0.00 | 89 | 1014.7 |
| 20260510060020 | 20 | 37 | 0.0 | 0.0 | 0.00 | 1.02 | 0.00 | 89 | 1014.9 |
| 20260510054504 | 20 | 37 | 0.0 | 0.0 | 0.00 | 1.02 | 0.00 | 89 | 1015.2 |
| 20260510053008 | 20 | 37 | 0.0 | 0.0 | 0.00 | 1.02 | 0.00 | 89 | 1015.3 |
| 20260510051505 | 20 | 37 | 0.0 | 0.0 | 0.00 | 1.02 | 0.00 | 89 | 1015.6 |
| 20260510050019 | 20 | 37 | 0.0 | 0.0 | 0.00 | 1.02 | 0.00 | 89 | 1015.8 |
| 20260510044529 | 20 | 37 | 0.0 | 0.0 | 0.00 | 1.02 | 0.00 | 89 | 1015.8 |
| 20260510043008 | 20 | 37 | 0.0 | 0.0 | 0.00 | 1.02 | 0.00 | 89 | 1015.8 |
| 20260510041513 | 20 | 37 | 0.0 | 0.0 | 0.00 | 1.04 | 0.00 | 89 | 1015.8 |
| 20260510040011 | 20 | 37 | 0.0 | 0.0 | 0.00 | 1.09 | 0.00 | 89 | 1015.9 |
| 20260510034507 | 20 | 37 | 0.0 | 0.0 | 0.00 | 1.14 | 1.09 | 89 | 1016.0 |
| 20260510033004 | 20 | 37 | 0.0 | 0.0 | 0.00 | 1.24 | 1.09 | 89 | 1016.0 |
| 20260510031511 | 20 | 37 | 0.0 | 0.0 | 0.00 | 1.63 | 1.09 | 89 | 1016.0 |
| 20260510030014 | 20 | 37 | 0.0 | 0.0 | 0.00 | 1.63 | 1.09 | 89 | 1016.0 |
| 20260510024518 | 20 | 37 | 0.0 | 0.0 | 0.00 | 1.63 | 1.09 | 88 | 1015.5 |
| 20260510023014 | 20 | 37 | 0.0 | 0.0 | 0.00 | 1.63 | 1.09 | 88 | 1015.3 |
| 20260510020008 | 20 | 37 | 0.0 | 1.6 | 0.00 | 1.63 | 1.09 | 88 | 1014.8 |
| 20260510014515 | 20 | 37 | 0.0 | 3.2 | 0.03 | 1.63 | 1.09 | 88 | 1014.5 |
| 20260510013018 | 20 | 37 | 0.0 | 3.2 | 0.03 | 1.63 | 1.09 | 88 | 1015.0 |
| 20260510011533 | 20 | 37 | 0.0 | 0.0 | 0.03 | 1.63 | 1.09 | 88 | 1014.4 |
| 20260510010005 | 20 | 37 | 0.0 | 0.0 | 0.03 | 1.63 | 1.09 | 88 | 1014.5 |
| 20260510004512 | 20 | 37 | 0.0 | 1.6 | 0.00 | 1.60 | 1.07 | 88 | 1014.7 |
| 20260510003009 | 21 | 37 | 0.0 | 0.0 | 0.00 | 1.60 | 1.07 | 88 | 1014.7 |
| 20260510001520 | 21 | 37 | 0.0 | 0.0 | 0.00 | 1.60 | 1.07 | 88 | 1014.8 |
| 20260510000046 | 21 | 37 | 0.0 | 0.0 | 0.03 | 1.60 | 1.07 | 87 | 1014.6 |
| 20260509234510 | 21 | 37 | 0.0 | 0.0 | 0.03 | 1.60 | 1.07 | 87 | 1014.7 |
| 20260509233015 | 21 | 37 | 0.0 | 0.0 | 0.03 | 1.60 | 1.07 | 87 | 1014.7 |
| 20260509231516 | 21 | 37 | 0.0 | 3.2 | 0.03 | 1.60 | 1.07 | 87 | 1014.7 |
| 20260509224525 | 21 | 37 | 0.0 | 4.8 | 0.00 | 1.57 | 1.04 | 87 | 1014.6 |
| 20260509223010 | 21 | 37 | 1.6 | 6.4 | 0.00 | 1.57 | 1.04 | 87 | 1014.7 |
| 20260509221514 | 21 | 30 | 0.0 | 9.7 | 0.00 | 1.57 | 1.04 | 87 | 1014.6 |
| 20260509220023 | 21 | 29 | 0.0 | 8.0 | 0.00 | 1.57 | 1.04 | 86 | 1014.7 |
| 20260509214526 | 21 | 21 | 4.8 | 12.9 | 0.00 | 1.57 | 1.04 | 86 | 1014.4 |
| 20260509211517 | 21 | 31 | 0.0 | 8.0 | 0.03 | 1.57 | 1.04 | 85 | 1014.4 |
| 20260509210018 | 22 | 56 | 6.4 | 17.7 | 0.03 | 1.57 | 1.04 | 85 | 1014.3 |
| 20260509204525 | 22 | 51 | 1.6 | 4.8 | 0.03 | 1.57 | 1.04 | 85 | 1014.2 |
| 20260509203007 | 22 | 60 | 0.0 | 0.0 | 0.05 | 1.57 | 1.04 | 84 | 1014.3 |
| 20260509201511 | 22 | 60 | 0.0 | 0.0 | 0.86 | 1.55 | 1.02 | 83 | 1014.2 |
| 20260509200014 | 23 | 60 | 0.0 | 0.0 | 0.91 | 1.55 | 1.02 | 82 | 1014.1 |
| 20260509194517 | 23 | 60 | 0.0 | 4.8 | 0.91 | 1.55 | 1.02 | 81 | 1014.2 |
| 20260509193013 | 24 | 43 | 6.4 | 12.9 | 0.89 | 1.52 | 0.99 | 78 | 1013.9 |
| 20260509191510 | 25 | 210 | 0.0 | 1.6 | 0.05 | 0.69 | 0.15 | 74 | 1014.1 |
| 20260509190013 | 26 | 210 | 0.0 | 0.0 | 0.00 | 0.64 | 0.10 | 71 | 1013.9 |
| 20260509184527 | 26 | 210 | 0.0 | 0.0 | 0.00 | 0.64 | 0.10 | 70 | 1014.1 |
| 20260509183022 | 26 | 210 | 0.0 | 4.8 | 0.00 | 0.64 | 0.10 | 69 | 1014.1 |
| 20260509180013 | 26 | 208 | 0.0 | 4.8 | 0.00 | 0.64 | 0.10 | 71 | 1014.3 |
| 20260509174514 | 26 | 89 | 0.0 | 4.8 | 0.00 | 0.64 | 0.10 | 72 | 1014.6 |
| 20260509173009 | 25 | 71 | 1.6 | 4.8 | 0.00 | 0.64 | 0.10 | 73 | 1014.6 |
| 20260509171523 | 25 | 71 | 0.0 | 6.4 | 0.00 | 0.64 | 0.10 | 73 | 1014.6 |
| 20260509170022 | 25 | 71 | 1.6 | 8.0 | 0.00 | 0.64 | 0.10 | 75 | 1014.6 |
| 20260509164512 | 24 | 83 | 0.0 | 4.8 | 0.00 | 0.64 | 0.10 | 76 | 1014.7 |
| 20260509163016 | 24 | 79 | 1.6 | 4.8 | 0.00 | 0.64 | 0.10 | 77 | 1014.7 |
| 20260509161512 | 23 | 79 | 0.0 | 3.2 | 0.00 | 0.64 | 0.10 | 78 | 1015.1 |
| 20260509160013 | 23 | 79 | 0.0 | 4.8 | 0.00 | 0.64 | 0.10 | 78 | 1015.1 |
| 20260509154524 | 23 | 79 | 0.0 | 6.4 | 0.00 | 0.64 | 0.10 | 78 | 1014.8 |